Flag for U.S.A. Weather past 2 weeks in Orange, California, U.S.A.

Now
67 °F

Cloudy.


Feels Like: 67 °F
Forecast: 57 / 68 °F
Wind: 7 mph from Southwest

Location: John Wayne Airport-Orange County Airport


UV Index: 0 (Low)

Visibility: 10 mi


Pressure: 29.93 "Hg

Humidity: 61%

Dew point: 53 °F

Location of OrangeLocation

Historic Weather in Orange

°F

Orange temperature yesterday

Maximum temperature yesterday: 67 °F (at 11:53 AM)
Minimum temperature yesterday: 60 °F (at 2:53 AM)
Average temperature yesterday: 63 °F

Past Weeks' High & Low Weather Summary

 TemperatureHumidityPressure
High88 °F (Apr 8, 1:53 PM)94% (Apr 10, 3:03 AM)30.14 "Hg (Apr 10, 3:03 AM)
Low53 °F (Apr 6, 6:53 AM)16% (Apr 8, 3:53 PM)29.79 "Hg (Apr 16, 5:53 PM)
Average64 °F60%29.97 "Hg
* Reported Apr 3 10:53 AM — Apr 18 10:53 AM, Orange, Weather by CustomWeather, © 2014

Note: Actual official high and low records may vary slightly from our data, if they occured in-between our weather recording intervals... More about our weather records

Advertising

Historic Weather Conditions — Data for Previous 24 hours

 ConditionsComfort  
Time TempWeatherWind HumidityBarometerVisibility
10:53 AM
Apr 18
67 °FCloudy.7 mph61%29.93 "Hg10 mi
9:53 AM66 °FCloudy.6 mph61%29.93 "Hg10 mi
8:53 AM65 °FCloudy.3 mph63%29.92 "Hg10 mi
7:53 AM63 °FMore clouds than sun.No wind68%29.91 "Hg10 mi
7:04 AM63 °FPassing clouds.3 mph68%29.88 "Hg10 mi
5:53 AM63 °FPassing clouds.No wind68%29.86 "Hg10 mi
4:53 AM63 °FOvercast.No wind68%29.86 "Hg10 mi
3:53 AM63 °FOvercast.5 mph65%29.87 "Hg10 mi
2:53 AM63 °FOvercast.7 mph65%29.88 "Hg10 mi
1:53 AM63 °FPassing clouds.3 mph68%29.89 "Hg10 mi
12:53 AM62 °FOvercast.6 mph73%29.90 "Hg10 mi
11:53 PM
Apr 17
62 °FPassing clouds.7 mph73%29.90 "Hg10 mi
10:53 PM62 °FOvercast.3 mph73%29.91 "Hg7 mi
9:53 PM62 °FOvercast.8 mph73%29.91 "Hg9 mi
8:53 PM63 °FOvercast.12 mph70%29.91 "Hg9 mi
7:53 PM63 °FPartly sunny.10 mph70%29.88 "Hg10 mi
6:53 PM63 °FBroken clouds.8 mph70%29.86 "Hg10 mi
5:53 PM64 °FPartly sunny.16 mph68%29.86 "Hg10 mi
4:53 PM65 °FPartly sunny.10 mph63%29.85 "Hg10 mi
3:53 PM65 °FBroken clouds.10 mph66%29.86 "Hg10 mi
2:53 PM67 °FMore clouds than sun.16 mph61%29.88 "Hg9 mi
1:53 PM66 °FBroken clouds.17 mph63%29.89 "Hg9 mi
12:53 PM67 °FBroken clouds.12 mph61%29.89 "Hg9 mi
Weather by CustomWeather, © 2014

See weather overview